Date String (YYYY-MM-DD hh:mm:ss) UTC,Instrument flags,absolute air pressure of the measurement (hPa),sample flow rate (lpm),inlet stack bypass flow (lpm),air temperature of the measurement (°C),ambient temperature measured by the external sensor (°C),aerosol sample conditioner tube jacket temperature (°C),OPC LED temperature (°C),internal box temperature (°C),relative humidity of the measurement (%),span deviation,mass concentration of particles derived from Lorenz-Mie calculation of OPC scattering (μg/m³),mass concentration of particles derived from Lorenz-Mie calculation of OPC scattering (μg/m³),mass concentration of particles derived from Lorenz-Mie calculation of OPC scattering (μg/m³)
DateTimeUTC,F1_M11,P_M11,Q1_M11,Q2_M11,T1_M11,T2_M11,T3_M11,T4_M11,T5_M11,U1_M11,ZSPAN_M11,X0_M11,X2_M11,X1_M11
2023-12-16 20:00:00,SystemResetWarning,0830.3,5.01,000.00,024.5,023.9,000.0,032.6,026.0,12.5,0000.0,0011.85,0005.63,0005.03
2023-12-16 20:01:00,SystemResetWarning,0830.3,5.00,000.00,024.5,023.9,000.0,032.6,026.0,12.5,0000.0,0011.95,0005.67,0005.07
2023-12-16 20:02:00,SystemResetWarning,0830.3,5.00,000.00,024.6,023.9,000.0,032.6,026.0,12.4,0000.0,0012.01,0005.66,0005.10
2023-12-16 20:03:00,SystemResetWarning,0830.3,5.00,000.00,024.6,024.0,000.0,032.6,026.1,12.4,0000.0,0011.93,0005.68,0005.13
2023-12-16 20:04:00,SystemResetWarning,0830.3,4.99,000.00,024.6,024.0,000.0,032.7,026.1,12.4,0000.0,0011.85,0005.70,0005.15
2023-12-16 20:05:00,SystemResetWarning,0830.2,5.00,000.00,024.7,024.0,000.0,032.7,026.1,12.2,0000.0,0011.51,0005.70,0005.16
2023-12-16 20:06:00,SystemResetWarning,0830.2,5.00,000.00,024.7,024.1,000.0,032.7,026.1,12.2,0000.0,0012.30,0005.68,0005.16
2023-12-16 20:07:00,SystemResetWarning,0830.3,5.00,000.00,024.7,024.1,000.0,032.7,026.1,12.2,0000.0,0012.65,0005.69,0005.17
2023-12-16 20:08:00,SystemResetWarning,0830.3,5.00,000.00,024.7,024.1,000.0,032.7,026.2,12.1,0000.0,0013.03,0005.71,0005.16
2023-12-16 20:09:00,SystemResetWarning,0830.2,5.00,000.00,024.7,024.1,000.0,032.8,026.2,11.9,0000.0,0012.99,0005.71,0005.14
2023-12-16 20:10:00,SystemResetWarning,0830.2,5.00,000.00,024.8,024.1,000.0,032.8,026.2,12.1,0000.0,0013.21,0005.72,0005.12
2023-12-16 20:11:00,SystemResetWarning,0830.2,5.00,000.00,024.8,024.2,000.0,032.8,026.3,11.7,0000.0,0012.92,0005.70,0005.10
2023-12-16 20:12:00,SystemResetWarning,0830.3,5.00,000.00,024.8,024.2,000.0,032.8,026.3,11.7,0000.0,0012.90,0005.68,0005.06
2023-12-16 20:13:00,SystemResetWarning,0830.3,5.00,000.00,024.8,024.2,000.0,032.8,026.3,11.5,0000.0,0013.13,0005.68,0005.04
2023-12-16 20:14:00,SystemResetWarning,0830.2,5.00,000.00,024.8,024.2,000.0,032.9,026.3,11.6,0000.0,0013.19,0005.66,0005.01
2023-12-16 20:15:00,SystemResetWarning,0830.2,5.00,000.00,024.9,024.2,000.0,032.9,026.3,11.7,0000.0,0013.03,0005.60,0004.97
2023-12-16 20:16:00,SystemResetWarning,0830.3,5.00,000.00,024.9,024.2,000.0,032.9,026.3,11.6,0000.0,0012.80,0005.56,0004.93
2023-12-16 20:17:00,SystemResetWarning,0830.2,5.00,000.00,024.9,024.2,000.0,032.9,026.3,11.7,0000.0,0011.93,0005.55,0004.89
2023-12-16 20:18:00,SystemResetWarning,0830.2,5.00,000.00,024.9,024.2,000.0,032.9,026.3,11.7,0000.0,0011.27,0005.49,0004.84
2023-12-16 20:19:00,SystemResetWarning,0830.1,5.00,000.00,024.9,024.3,000.0,033.0,026.4,11.7,0000.0,0010.64,0005.41,0004.79
2023-12-16 20:20:00,SystemResetWarning,0830.1,5.00,000.00,024.9,024.3,000.0,033.0,026.4,11.5,0000.0,0010.85,0005.37,0004.75
2023-12-16 20:21:00,SystemResetWarning,0830.1,5.00,000.00,024.9,024.3,000.0,033.0,026.4,11.6,0000.0,0010.67,0005.30,0004.70
2023-12-16 20:22:00,SystemResetWarning,0830.2,5.00,000.00,025.0,024.3,000.0,033.0,026.4,11.6,0000.0,0010.36,0005.22,0004.65
2023-12-16 20:23:00,SystemResetWarning,0830.2,5.01,000.00,025.0,024.3,000.0,033.0,026.4,11.6,0000.0,0010.07,0005.15,0004.61
2023-12-16 20:24:00,SystemResetWarning,0830.2,5.00,000.00,025.0,024.3,000.0,033.0,026.4,11.3,0000.0,0009.08,0005.09,0004.56
2023-12-16 20:25:00,SystemResetWarning,0830.3,5.00,000.00,025.0,024.3,000.0,033.1,026.4,11.4,0000.0,0009.38,0005.08,0004.51
2023-12-16 20:26:00,SystemResetWarning,0830.3,5.00,000.00,025.0,024.3,000.0,033.1,026.5,11.3,0000.0,0009.37,0005.03,0004.46
2023-12-16 20:27:00,SystemResetWarning,0830.2,5.00,000.00,025.0,024.3,000.0,033.1,026.4,11.0,0000.0,0009.37,0004.98,0004.41
2023-12-16 20:28:00,SystemResetWarning,0830.1,5.00,000.00,025.0,024.3,000.0,033.1,026.4,10.8,0000.0,0009.52,0004.94,0004.38
2023-12-16 20:29:00,SystemResetWarning,0830.1,5.00,000.00,025.1,024.3,000.0,033.1,026.5,10.5,0000.0,0010.05,0004.88,0004.35
2023-12-16 20:30:00,SystemResetWarning,0830.1,5.00,000.00,025.1,024.3,000.0,033.1,026.5,10.8,0000.0,0010.02,0004.84,0004.33
2023-12-16 20:31:00,SystemResetWarning,0830.2,5.00,000.00,025.1,024.3,000.0,033.1,026.5,10.9,0000.0,0010.01,0004.82,0004.29
2023-12-16 20:32:00,SystemResetWarning,0830.2,5.00,000.00,025.1,024.3,000.0,033.2,026.5,10.7,0000.0,0009.88,0004.78,0004.24
2023-12-16 20:33:00,SystemResetWarning,0830.2,5.01,000.00,025.1,024.3,000.0,033.2,026.5,10.6,0000.0,0009.77,0004.71,0004.18
2023-12-16 20:34:00,SystemResetWarning,0830.2,5.00,000.00,025.1,024.3,000.0,033.2,026.5,10.5,0000.0,0009.71,0004.65,0004.11
2023-12-16 20:35:00,SystemResetWarning,0830.2,4.99,000.00,025.1,024.4,000.0,033.2,026.5,10.5,0000.0,0009.50,0004.53,0004.03
2023-12-16 20:36:00,SystemResetWarning,0830.2,4.99,000.00,025.1,024.4,000.0,033.2,026.6,10.7,0000.0,0008.86,0004.42,0003.96
2023-12-16 20:37:00,SystemResetWarning,0830.2,5.00,000.00,025.1,024.4,000.0,033.2,026.6,10.7,0000.0,0008.60,0004.37,0003.91
2023-12-16 20:38:00,SystemResetWarning,0830.2,5.01,000.00,025.2,024.4,000.0,033.2,026.6,10.5,0000.0,0008.60,0004.33,0003.87
2023-12-16 20:39:00,SystemResetWarning,0830.1,5.00,000.00,025.2,024.4,000.0,033.3,026.6,10.6,0000.0,0008.19,0004.25,0003.82
2023-12-16 20:40:00,SystemResetWarning,0830.2,4.99,000.00,025.2,024.4,000.0,033.3,026.6,10.3,0000.0,0007.64,0004.21,0003.77
2023-12-16 20:41:00,SystemResetWarning,0830.2,4.99,000.00,025.2,024.4,000.0,033.3,026.6,10.2,0000.0,0007.47,0004.19,0003.72
2023-12-16 20:42:00,SystemResetWarning,0830.3,5.01,000.00,025.2,024.5,000.0,033.3,026.7,10.7,0000.0,0007.08,0004.11,0003.66
2023-12-16 20:43:00,SystemResetWarning,0830.3,5.01,000.00,025.3,024.5,000.0,033.3,026.7,10.7,0000.0,0006.77,0004.03,0003.62
2023-12-16 20:44:00,SystemResetWarning,0830.3,5.00,000.00,025.3,024.5,000.0,033.3,026.7,10.5,0000.0,0006.63,0003.95,0003.55
2023-12-16 20:45:00,SystemResetWarning,0830.3,4.99,000.00,025.3,024.5,000.0,033.4,026.7,10.5,0000.0,0006.98,0003.91,0003.51
2023-12-16 20:46:00,SystemResetWarning,0830.3,5.00,000.00,025.3,024.5,000.0,033.4,026.7,10.8,0000.0,0007.73,0003.91,0003.48
2023-12-16 20:47:00,SystemResetWarning,0830.2,5.01,000.00,025.3,024.6,000.0,033.4,026.7,10.6,0000.0,0007.75,0003.89,0003.46
2023-12-16 20:48:00,SystemResetWarning,0830.2,5.01,000.00,025.3,024.6,000.0,033.4,026.8,10.6,0000.0,0008.17,0003.88,0003.43
2023-12-16 20:49:00,SystemResetWarning,0830.2,4.99,000.00,025.4,024.6,000.0,033.4,026.8,10.4,0000.0,0008.08,0003.84,0003.40
2023-12-16 20:50:00,SystemResetWarning,0830.2,4.99,000.00,025.4,024.6,000.0,033.4,026.8,10.0,0000.0,0008.58,0003.83,0003.39
2023-12-16 20:51:00,SystemResetWarning,0830.1,5.03,000.00,025.4,024.6,000.0,033.4,026.8,9.6,0000.0,0008.98,0003.81,0003.38
2023-12-16 20:52:00,SystemResetWarning,0830.2,5.00,000.00,025.4,024.7,000.0,033.5,026.8,9.3,0000.0,0009.13,0003.79,0003.36
2023-12-16 20:53:00,SystemResetWarning,0830.1,4.99,000.00,025.4,024.7,000.0,033.5,026.8,9.4,0000.0,0009.34,0003.81,0003.37
2023-12-16 20:54:00,SystemResetWarning,0830.1,5.00,000.00,025.4,024.7,000.0,033.5,026.9,9.5,0000.0,0009.27,0003.76,0003.32
2023-12-16 20:55:00,SystemResetWarning,0830.1,5.01,000.00,025.5,024.7,000.0,033.5,026.9,8.9,0000.0,0009.19,0003.71,0003.29
2023-12-16 20:56:00,SystemResetWarning,0830.1,5.00,000.00,025.5,024.7,000.0,033.5,026.9,9.2,0000.0,0009.03,0003.63,0003.22
2023-12-16 20:57:00,SystemResetWarning,0830.1,5.00,000.00,025.5,024.8,000.0,033.6,026.9,9.3,0000.0,0008.31,0003.55,0003.15
2023-12-16 20:58:00,SystemResetWarning,0830.1,5.00,000.00,025.5,024.8,000.0,033.6,026.9,9.5,0000.0,0008.58,0003.45,0003.03
2023-12-16 20:59:00,SystemResetWarning,0830.1,5.00,000.00,025.5,024.8,000.0,033.6,026.9,9.2,0000.0,0008.07,0003.30,0002.83
